COSMOS 1275 DEB, 17638

Orbit data source: Space-Track

COSMOS 1275 DEB, 17638 is space debris in LEO originally from a launch on Thu, 04 Jun 1981 UTC launched from the Plesetsk Missile And Space Complex (PKMTR). Debris objects in space refer to the collection of defunct objects orbiting the Earth. Examples of debris include non-operational satellites, rocket bodies, and fragments generated from explosions, collisions, or faulty payload assembly.

Loading next visibility...
Identifier
17638, 1981-053LH
Orbit
LEO
Country
Flag of CISCIS
Related business
Manufacturer
Unknown
Mission
Spacecraft
Bus & Motor
Unknown
Mass
Unknown
Launch date (UTC)
1981-06-04 (44 years ago)
Launch vehicle
Unknown
Launch site
Plesetsk Missile And Space Complex (PKMTR)
Object type
Payload
Rocket body
Debris
Shape & HBR
Unknown shape, 0.1 m
Radar Cross Section
Small (<0.1 m²)

Expand to show TLE details & history
Last TLE update: 4 days ago

TLE from 4 days ago
0 COSMOS 1275 DEB
1 17638U 81053LH  25283.78298955  .00001521  00000-0  15694-2 0  9991
2 17638  82.9879 111.6349 0105788 204.2098 174.8033 13.72948309 10697
Epoch: 2025-10-10T18:47Z
TLE epoch observation values (Epoch: 2025-10-10T18:47:30.297Z)
Latitude
18.96957°
Longitude
172.54547°
Altitude
1,069.053 km
Speed
7.28 km/s
True Right ascension
07h 36m 10s
True Declination
18° 52' 07"
Sunlit
Object was in daylight at epoch
Visualization orbit readout
Latitude
Unknown
Longitude
Unknown
Altitude
Unknown
Speed
Unknown
Apparent Right ascension
Unknown
Apparent Declination
Unknown
Sunlit
N/A
Visualization observer readout
Local Sidereal Time
05:42:28
Azimuth
Unknown
Elevation
Unknown
Doppler factor
Unknown
Orbital elements
Apogee altitude
1,064.06 km
Perigee altitude
908.249 km
Semi-major axis
7,364.292 km
Eccentricity
0.01058
Inclination
82.9879°
RAAN
111.6349°
Arg. of periapsis
204.2098°
True anomaly
174.91167°
Mean anomaly
174.8033°
Eccentric anomaly
174.85763°
Mean motion
3.43437 °/min
Orbital period
104.82 mins
BSTAR
0.0015694
Loading maneuver chart data...
Computing Atmospheric mass density...

Documentation

Showing up to 5 results
|